Content
SEND FEEDBACK

Daily
Averages
Monthly
Summary
Canada

QUEBEC CITY, QUEBEC


Home > North America > Canada > Quebec
Elevation: 72 meters     Latitude: 46 48N     Longitude: 071 23W

WEATHER
 
SELECT A DAY
Number of Records: 192,457;   Date Range: 6/30/96 - 8/20/14
 
SHARE

PRINT THIS DATA

[ ← Previous Day ]
WEATHER ALMANAC - 22 MAY, 2013
[ Next Day → ]
[ °F ]   °C
Weather ElementAverageHighLow
Temperature11.3 °C14 °C (5:00 pm) (2:33 pm)
Dewpoint4 °C12.2 °C (11:00 pm) (7:00 pm)
Humidity88.9 %97 % (8:00 am)68 % (2:00 am)
Wind Speed16.4 km/h25.9 km/h (9:00 am)
Wind Gust29.6 km/h (8:41 am)
Weather ElementAverage
Visibility10.8 km
Wind DirectionENE (69.8 °)

Weather ElementTotal
Precipitation---
Heating Degree Days20.2 (Base 18.3)
Averaged from 40 records on 22 May, 2013
WEATHER CONDITIONS BREAKOUT
WIND DIRECTION BREAKOUT
WEATHER BY HOUR - 22 MAY, 2013
[ °F ]   °C
Local TimeTemperatureDewpointHumidityBarometerVisibilityWind DirectionWind SpeedGust SpeedPrecipitationEventsConditions
1:00 AM12 °C7 °C72 %1013.5 hPa24.1 kmENE (60°)20.4 km/hOvercast
2:00 AM12.2 °C7.8 °C68 %1012.5 hPaEast (80°)13 km/h
2:00 AM12 °C7 °C72 %1012.9 hPa24.1 kmENE (70°)18.5 km/h27.8 km/hRainLight Rain
3:00 AM11 °C9 °C88 %1013.2 hPa24.1 kmENE (60°)13 km/hRainLight Rain
4:00 AM11 °C9 °C88 %1013.2 hPa24.1 kmENE (70°)16.7 km/hRainLight Rain
5:00 AM11 °C9 °C88 %1012.9 hPa4.8 kmENE (70°)22.2 km/hRainLight Rain
5:00 AM10.6 °C10 °C93 %1012.2 hPaEast (80°)14.8 km/h
6:00 AM11 °C10 °C94 %1012.9 hPa2.4 kmENE (60°)16.7 km/hRainLight Rain
6:39 AM10 °C-17.8 °C4 kmENE (70°)18.5 km/hLight Drizzle
7:00 AM11 °C9 °C88 %1012.9 hPa4 kmENE (70°)16.7 km/h27.8 km/hLight Drizzle
7:23 AM11 °C-17.8 °C2.9 kmENE (70°)22.2 km/hRainLight Rain
8:00 AM10.6 °C10 °C97 %1012.5 hPaEast (80°)11.1 km/h
8:00 AM11 °C10 °C94 %1013.2 hPa2.4 kmENE (70°)20.4 km/hRainLight Rain
8:41 AM11 °C-17.8 °C1.6 kmENE (70°)18.5 km/h29.6 km/hRainLight Rain
9:00 AM11 °C10 °C94 %1013.2 hPa1.9 kmENE (70°)25.9 km/hRainLight Rain
10:00 AM11 °C10 °C94 %1012.9 hPa1.9 kmENE (60°)16.7 km/hRainLight Rain
10:31 AM12 °C-17.8 °C1.9 kmENE (60°)16.7 km/hLight Drizzle
11:00 AM11.7 °C10.6 °C92 %1011.9 hPaEast (80°)13 km/h
11:00 AM12 °C11 °C94 %1012.5 hPa2.4 kmENE (60°)20.4 km/hLight Drizzle
12:00 PM12 °C11 °C94 %1012.9 hPa2.4 kmENE (60°)13 km/hLight Drizzle
1:00 PM12 °C11 °C94 %1012.9 hPa3.2 kmENE (70°)14.8 km/hLight Drizzle
1:25 PM12 °C-17.8 °C4.8 kmENE (60°)14.8 km/hLight Drizzle
1:49 PM12 °C-17.8 °C1.9 kmENE (70°)11.1 km/hRainLight Rain
2:00 PM12.2 °C11.7 °C95 %1011.9 hPaEast (80°)11.1 km/h
2:00 PM12 °C11 °C94 %1012.5 hPa1.9 kmENE (70°)13 km/hRainLight Rain
2:33 PM-17.8 °C-17.8 °C4.8 kmENE (70°)18.5 km/hFogLight Drizzle
3:00 PM13.1 °C10.9 °C87 %1011.9 hPa12.9 kmEast (80°)14.8 km/h
4:00 PM13 °C11 °C88 %1011.5 hPa12.9 kmEast (90°)16.7 km/hOvercast
5:00 PM13.9 °C11.7 °C82 %1010.5 hPaEast (80°)13 km/h
5:00 PM14 °C11 °C82 %1011.2 hPa24.1 kmEast (80°)16.7 km/hOvercast
6:00 PM13 °C11 °C88 %1010.8 hPa16.1 kmENE (70°)20.4 km/hOvercast
7:00 PM13 °C11 °C88 %1010.8 hPa24.1 kmENE (70°)14.8 km/hOvercast
7:34 PM13 °C-17.8 °C24.1 kmNE (50°)14.8 km/hOvercast
8:00 PM12.8 °C11.7 °C89 %1009.5 hPaENE (70°)11.1 km/h
8:00 PM13 °C11 °C88 %1010.2 hPa24.1 kmENE (70°)22.2 km/hOvercast
9:00 PM13 °C11 °C88 %1009.5 hPa24.1 kmENE (60°)16.7 km/hOvercast
9:54 PM13 °C-17.8 °C12.9 kmENE (70°)18.5 km/hRainLight Rain
10:00 PM13 °C12 °C94 %1009.1 hPa12.9 kmENE (60°)11.1 km/hRainLight Rain
11:00 PM12.8 °C12.2 °C95 %1008.1 hPaEast (80°)11.1 km/h
11:00 PM13 °C12 °C94 %1008.5 hPa9.7 kmENE (70°)20.4 km/hRainLight Rain
Hourly data recorded from CYQB, located 0 kilometers away from Quebec City, Quebec







STORIES FROM OUR PARTNERS